Hourly Data Report for October 18, 2016

All times are specified in Local Standard Time (LST). Add 1 hour to adjust for Daylight Saving Time where and when it is observed.

FREDERICTON
NEW BRUNSWICK

45°52'08.000" N
66°32'14.000" W
20.70 m
8101505
71700
YFC

Download Data

Hourly Data (October 2016)
Hourly Data Report for October 18, 2016
Temp Definition
°C
Dew Point Temp Definition
°C
Rel Hum Definition
%
Wind Dir Definition
10's deg

Wind Spd Definition
km/h
Visibility Definition
km
Stn Press Definition
kPa
Hmdx Definition


Wind Chill Definition


Weather Definition


TIME
00:00 Legend Double Dagger 5.0 2.9 86 30 5 16.1 101.26     LegendNANA
01:00 Legend Double Dagger 4.8 3.0 88 30 5 16.1 101.30     LegendNANA
02:00 Legend Double Dagger 4.8 3.9 94 31 8 16.1 101.32     LegendNANA
03:00 Legend Double Dagger 4.9 3.7 92 31 8 16.1 101.38     LegendNANA
04:00 Legend Double Dagger 4.6 3.7 94 25 8 16.1 101.42     LegendNANA
05:00 Legend Double Dagger 4.5 3.2 91 32 5 16.1 101.45     LegendNANA
06:00 Legend Double Dagger 2.2 1.9 98 24 5 16.1 101.50     LegendNANA
07:00 Legend Double Dagger 2.0 1.7 98 35 4 16.1 101.56     LegendNANA
08:00 Legend Double Dagger 3.8 3.2 96   0 16.1 101.64     LegendNANA
09:00 Legend Double Dagger 7.0 3.7 80 6 11 16.1 101.67     LegendNANA
10:00 Legend Double Dagger 9.2 4.8 74 6 17 16.1 101.61     LegendNANA
11:00 Legend Double Dagger 10.7 5.5 70 6 11 16.1 101.61     LegendNANA
12:00 Legend Double Dagger 12.9 4.9 58 11 15 16.1 101.48     LegendNANA
13:00 Legend Double Dagger 14.2 5.1 54 11 18 16.1 101.38     LegendNANA
14:00 Legend Double Dagger 14.2 5.9 57 14 21 16.1 101.31     LegendNANA
15:00 Legend Double Dagger 13.6 7.0 64 13 15 16.1 101.25     Rain
16:00 Legend Double Dagger 13.3 6.1 62 13 17 16.1 101.13     LegendNANA
17:00 Legend Double Dagger 12.7 6.4 65 13 8 16.1 101.10     LegendNANA
18:00 Legend Double Dagger 12.3 6.2 66 13 9 16.1 101.00     LegendNANA
19:00 Legend Double Dagger 12.0 6.7 70 14 8 16.1 100.91     LegendNANA
20:00 Legend Double Dagger 12.0 7.4 73 13 5 16.1 100.82     LegendNANA
21:00 Legend Double Dagger 13.9 10.2 78 17 28 16.1 100.67     LegendNANA
22:00 Legend Double Dagger 13.3 11.4 88 18 26 16.1 100.56     LegendNANA
23:00 Legend Double Dagger 13.7 12.4 92 17 22 16.1 100.42     LegendNANA

Notes on Data Quality.

Legend

  • E = Estimated
  • M = Missing
  • NA = Not Available
  • ‡ = Partner data that is not subject to review by the National Climate Archives
Date modified: